www.pogodaiklimat.ru

Погода и климат >> Архив погоды >> Россия >> Архангельская область >> Онега


АРХИВ ПОГОДЫ в Онеге

Время (UTC), дата Ветер
(напр.,м/с)
 
Видим.   Явления Облачность Т
(С)
Тd
(С)
f
(%)
Тe
(С)
Тes
(С)
Комфортность P
(гПа)
Po
(гПа)
Тmin
(С)
Tmax
(С)
R
(мм)
R24
(мм)
S
(см)
00 16.07 штиль 0 50 км 8/1 600 м
[Sc Ac lent Ci sp]
+6.9 +6.2 95 +6 +6 1011.3 1009.8
03 16.07 СЗ 3 50 км 10/10 240 м
[St]
+10.0 +9.1 94 +8 +8 1011.8 1010.3 +6.6
06 16.07 З 3 50 км 10/10 240 м
[St]
+10.2 +8.0 86 +8 +8 1012.4 1010.9
09 16.07 З 3 50 км 10/10 330 м
[St]
+11.9 +8.1 78 +10 +10 1013.1 1011.7
12 16.07 СЗ 3 50 км 8/8 450 м
[St]
+13.1 +8.3 73 +12 +13 1013.4 1011.9
15 16.07 СЗ 3 50 км 4/1 300 м
[Cu Sc Ci fib]
+13.8 +8.0 68 +13 +15 1013.2 1011.8 +14.1
18 16.07 З 1 50 км 1/0
[Ci fib]
+11.9 +8.6 80 +12 +12 1013.2 1011.7
21 16.07 штиль 0 50 км 1/0
[Ci fib]
+6.2 +5.5 95 +5 +5 1013.6 1012.1
00 17.07 ЮВ 1 50 км {туман} 1/0
[Ci fib]
+4.2 +3.8 97 +3 +3 1014.3 1012.8
03 17.07 ЮВ 1 50 км 1/0
[Ci fib]
+9.5 +8.3 92 +9 +11 1014.6 1013.1 +3.8
06 17.07 В 1 50 км 8/1 1500 м
[Cu hum Ci fib]
+15.6 +8.6 63 +16 +23 1015.1 1013.6
09 17.07 50 км 6/4 1500 м
[Cu med, cong Ci fib]
+18.7 +7.3 47 1015.1 1013.7
12 17.07 СЗ 2 50 км 8/3 1500 м
[Cu med, cong Ci sp]
+20.2 +8.8 48 +22 +28 комфорт 1015.2 1013.8
15 17.07 ЮВ 1 50 км 8/1 1500 м
[Cu hum Ac trans Ci sp]
+20.0 +5.8 39 +22 +24 комфорт 1014.8 1013.3 +21.0
18 17.07 В 2 50 км 8/1 1500 м
[Sc diur, vesp Ac cuf Ci fib]
+18.1 +7.0 48 +19 +19 1014.9 1013.5
21 17.07 В 2 50 км 8/8 330 м
[St]
+15.2 +8.0 62 +15 +15 1015.0 1013.6
00 18.07 В 4 20 км слаб. ливневой дождь 10/10 360 м
[Cb cap]
+15.9 +9.8 67 +15 +15 1015.0 1013.6
03 18.07 В 5 50 км 10/3 600 м
[Sc Ac trans Ci fib]
+16.5 +9.0 61 +16 +16 1014.1 1012.7 +14.3 0.0
06 18.07 В 3 50 км 10/3 600 м
[Cu Sc Ac trans Cs]
+19.4 +10.5 56 +21 +23 комфорт 1014.0 1012.6
09 18.07 ЮВ 2 50 км 8/1 1000 м
[Sc Ac trans Ci fib]
+22.8 +11.0 47 +25 +31 комфорт 1013.5 1012.1
12 18.07 В 3
{10}
50 км 6/1 1000 м
[Cu hum Ac trans Ci fib]
+24.7 +8.2 35 +25 +30 комфорт 1012.5 1011.1
15 18.07 В 5
{11}
50 км 10/3 600 м
[Cb cap Ac trans Cs]
+24.6 +9.6 39 +25 +26 комфорт 1012.0 1010.6 +25.0
18 18.07 В 4 50 км 10/3 600 м
[Cb cap Ac lent Ci sp]
+21.0 +9.3 47 +23 +23 комфорт 1011.8 1010.4
21 18.07 В 5
{10}
50 км 10/1 600 м
[Sc Ac lent Cs]
+18.2 +8.9 55 +18 +18 1012.0 1010.6
00 19.07 В 4 50 км 8/0
[Ac lent Ci fib]
+15.8 +8.3 61 +15 +15 1012.0 1010.6
03 19.07 В 3 50 км 9/0
[Ac lent Cc]
+17.0 +8.9 59 +17 +18 1011.5 1010.1 +15.2
06 19.07 В 3 50 км 3/1 1500 м
[Sc Ac trans Ci fib]
+21.5 +9.2 45 +23 +28 комфорт 1010.7 1009.3
09 19.07 В 5
{10}
50 км 6/0
[Ac trans Cc]
+22.4 +7.8 39 +23 +28 комфорт 1010.0 1008.6
12 19.07 В 3 50 км 3/0
[Ac trans Cc]
+24.2 +7.3 34 +24 +31 комфорт 1009.3 1007.9
15 19.07 В 3 50 км 8/0
[Ac trans Cc]
+23.9 +3.7 27 +23 +25 комфорт 1008.7 1007.3 +24.6
18 19.07 СВ 3 50 км 9/3 1000 м
[Sc Ac trans]
+19.7 +6.3 42 +21 +21 комфорт 1008.8 1007.4
21 19.07 СВ 3 50 км 6/1 1000 м
[Sc Ac trans Ci fib]
+16.5 +8.9 61 +16 +16 1008.9 1007.4
00 20.07 СВ 3 50 км 3/0
[Ac trans Ci fib]
+14.0 +8.9 71 +13 +13 1009.5 1008.1
03 20.07 СВ 3 50 км 6/0
[Ac trans Cc]
+14.6 +9.0 69 +14 +15 1010.1 1008.7 +13.4
06 20.07 СВ 3 50 км 10/0
[Ac trans Cs]
+17.8 +10.8 64 +18 +22 1010.6 1009.1
09 20.07 СВ 4 50 км 10/3 600 м
[Sc Ac lent Cs]
+15.9 +10.9 72 +15 +18 1011.8 1010.4
12 20.07 С 2 50 км 10/5 600 м
[Sc Cs]
+18.2 +11.4 64 +19 +23 1012.6 1011.2
15 20.07 СЗ 3 50 км 9/5 600 м
[Sc Ac lent Ci sp]
+16.3 +11.3 72 +16 +17 1013.2 1011.8 +18.2
18 20.07 С 3 50 км 5/1 1000 м
[Sc Ac trans Ci sp]
+15.0 +10.8 76 +14 +14 1013.9 1012.5
21 20.07 С 2 50 км 3/1 1500 м
[Sc Ac trans]
+11.1 +7.1 76 +10 +10 1014.7 1013.2
00 21.07 С 2 50 км 3/1 1500 м
[Sc Ac trans Ci fib]
+9.5 +6.1 79 +8 +8 1015.6 1014.1
03 21.07 СЗ 1 50 км 3/0
[Ac trans Ci fib]
+11.8 +6.2 69 +12 +13 1016.0 1014.5 +7.9
06 21.07 СЗ 3 50 км 1/0
[Ci fib]
+16.4 +8.2 58 +16 +22 1016.3 1014.9
09 21.07 З 5 50 км 1/0
[Ci fib]
+16.4 +11.0 70 +15 +21 1016.5 1015.1
12 21.07 З 5 50 км 1/0
[Ci fib]
+17.9 +11.0 64 +18 +22 1016.8 1015.4
15 21.07 СЗ 3 50 км ясно +19.8 +7.8 46 +21 +23 комфорт 1016.4 1015.0 +20.3
18 21.07 С 1 50 км 1/0
[Ci fib]
+16.1 +10.4 69 +17 +17 1016.4 1015.0
21 21.07 штиль 0 50 км 3/0
[Ac lent Ci fib]
+9.1 +5.6 79 +8 +8 1017.1 1015.7
00 22.07 ЮЗ 1 50 км 3/0
[Ac lent Ci fib]
+6.8 +3.9 82 +6 +6 1017.5 1016.0
03 22.07 штиль 0 50 км 3/0
[Ci sp]
+11.8 +7.9 77 +11 +13 1017.8 1016.3 +5.6
06 22.07 З 3 50 км 3/0
[Ci sp]
+16.5 +10.8 69 +16 +22 1017.4 1015.9
09 22.07 СЗ 3 50 км 8/0
[Cc]
+19.6 +8.6 49 +21 +29 комфорт 1017.0 1015.6
12 22.07 СЗ 4 50 км 9/0
[Ac trans Ci sp]
+20.1 +7.8 45 +21 +26 комфорт 1016.6 1015.2
15 22.07 С 3 50 км 10/1 1000 м
[Sc Ac trans Ci sp]
+21.5 +6.6 38 +22 +23 комфорт 1015.7 1014.3 +22.0
18 22.07 СВ 2 50 км 10/1 1000 м
[Sc Ac trans Cc]
+17.0 +4.1 42 +17 +17 1015.5 1014.1
21 22.07 СЗ 2 50 км 10/1 1000 м
[Sc Ac trans Ci sp]
+12.2 +4.9 61 +11 +11 1015.2 1013.7

 

Местоположение метеостанции Онега (Архангельская область, Россия): широта 63.90 долгота 38.12 высота над уровнем моря 13 м.

В архиве по умолчанию представлена погода в Онеге за последнюю неделю. Архивные данные за месяц целиком и за предыдущие месяцы, начиная с января 2011 года, Вы можете получить, выбрав интересующий диапазон дат из раскрывающегося списка и нажав кнопку "Ввод!".


*Определитесь, кто Вы:
робот инопланетянин человек

Внимание! Время в таблицах - всемирное. Для получения местного времени необходимо прибавить поправку, которая равна 3 ч.

Смотрите также архив погоды в соседних городах и на ближайших метеорологических станциях:

Погода в Калгачихе (Архангельская область, Россия) (95 км)
Погода в Турчасово (Архангельская область, Россия) (103 км)
Погода в Унском Маяке (Архангельская область, Россия) (104 км)
Погода в Северодвинске (Архангельская область, Россия) (110 км)
Погода в Колежме (Карелия, Россия) (115 км)
Погода в Архангельске (Архангельская область, Россия) (143 км)
Погода на Мудьюг Острове (Архангельская область, Россия) (148 км)
Погода в Жижгине (Архангельская область, Россия) (158 км)
Погода в Плесецке (Архангельская область, Россия) (169 км)
Погода в Соловках (Архангельская область, Россия) (170 км)

Пояснения к столбцам:

Ветер - указаны скорость ветра в м/с - средняя за 10 мин, порывы в срок и между сроками (в фигурных скобках) и направление, откуда дует ветер: С - северный, СВ - северо-восточный, В - восточный, ЮВ - юго-восточный, Ю - южный, ЮЗ - юго-западный, З - западный, СЗ - северо-западный.
Видимость - горизонтальная дальность видимости в метрах или километрах. При видимости от 1 до 10 км при отсутствии осадков обычно наблюдается дымка, при ухудшении видимости до 1 км и менее - туман. В сухую погоду видимость может ухудшаться дымом, пылью или мглою.
Явления - указаны атмосферные явления, наблюдавшиеся в срок или в последний час перед сроком; фигурными скобками обозначены явления, наблюдавшиеся между сроками (за 1-3 часа до срока); квадратными скобками обозначены град или гололедные отложения с указанием их диаметра в мм.
Облачность - указаны через наклонную черту общая и нижняя облачность в баллах и высота нижней границы облаков в метрах; квадратными скобками обозначены формы облаков: Ci - перистые, Cs - перисто-слоистые, Cc - перисто-кучевые, Ac - высококучевые, As - высокослоистые, Sc - слоисто-кучевые, Ns - слоисто-дождевые, Cu - кучевые, Cb - кучево-дождевые. Подробнее классификацию облаков см. в Атласе облаков (PDF).
T - Температура воздуха - температура, измеренная на высоте 2 м над землей.
Td - Температура точки росы - температура, при понижении до которой содержащийся в воздухе водяной пар достигнет насыщения.
f - Относительная влажность воздуха - влажноcть воздуха, измеренная на высоте 2 м над землей.
Te - Эффективная температура - температура, которую ощущает одетый по сезону человек в тени. Характеристика душности погоды. При расчете учитывается влияние влажности воздуха и скорости ветра на теплоощущения человека.
Tes - Эффективная температура на солнце - температура, которую ощущает человек, с поправкой на солнечный нагрев. Характеристика знойности погоды. Зависит от высоты солнца над горизонтом, облачности и скорости ветра. Ночью, в пасмурную погоду, а также при ветре 12 м/с и более поправка равна нулю.
P - Атмосферное давление - приведенное к уровню моря атмосферное давление.
Po - Атмосферное давление - измеренное на уровне метеостанции атмосферное давление.
Tmin - Минимальная температура - минимум температуры воздуха на высоте 2 м над землей.
Tmax - Максимальная температура - максимум температуры воздуха на высоте 2 м над землей.
R - Количество осадков - Количество выпавших осадков за период времени, мм. При наведении курсора мыши на число - период времени, за который выпало указанное количество осадков.
R24 - Количество осадков - Количество выпавших осадков за 24 часа, мм.
S - Снежный покров - Высота снежного покрова, см. При наведении курсора мыши на число - состояние снежного покрова и степень покрытия местности в баллах.